This is the latest recevied weather packets stored in our database for station/object K1BES. If no packets are shown the sender has not sent any weather packets the latest 10 day(s).
| Time | Temp. | Humidity | Pressure | Rain* | Wind** | Luminosity | Snow |
|---|---|---|---|---|---|---|---|
| 1787919133 | 25.56° C | 90% | 1019.4 hPa | 0 mm | - | 45 W/m² | - |
| 1787918833 | 25.56° C | 92% | 1019.5 hPa | 0 mm | - | 33 W/m² | - |
| 1787918528 | 25.56° C | 93% | 1019.2 hPa | 0 mm | - | 31 W/m² | - |
| 1787918226 | 25° C | 95% | 1019.3 hPa | 0 mm | - | 28 W/m² | - |
| 1787917926 | 25° C | 95% | 1019.1 hPa | 0 mm | - | 26 W/m² | - |
| 1787917622 | 25° C | 95% | 1019.1 hPa | 0 mm | - | 24 W/m² | - |
| 1787917318 | 25° C | 96% | 1019.2 hPa | 0 mm | - | 22 W/m² | - |
| 1787917017 | 25° C | 96% | 1019 hPa | 0 mm | - | 19 W/m² | - |
| 1787916712 | 25° C | 96% | 1018.9 hPa | 0 mm | - | 16 W/m² | - |
| 1787916407 | 25° C | 96% | 1018.9 hPa | 0 mm | - | 13 W/m² | - |
| 1787916102 | 25° C | 96% | 1018.9 hPa | 0 mm | - | 10 W/m² | - |
| 1787915797 | 25° C | 96% | 1018.8 hPa | 0 mm | - | 6 W/m² | - |
| 1787915492 | 25° C | 96% | 1018.7 hPa | 0 mm | - | 4 W/m² | - |
| 1787915187 | 25° C | 95% | 1019 hPa | 0 mm | - | 2 W/m² | - |
| 1787914887 | 25° C | 95% | 1018.8 hPa | 0 mm | - | 1 W/m² | - |
| 1787914585 | 25° C | 95% | 1018.7 hPa | 0 mm | - | 0 W/m² | - |
| 1787914281 | 25° C | 95% | 1018.8 hPa | 0 mm | - | 0 W/m² | - |
| 1787913980 | 25° C | 95% | 1018.6 hPa | 0 mm | - | 0 W/m² | - |
| 1787913680 | 25° C | 95% | 1018.3 hPa | 0 mm | - | 0 W/m² | - |
| 1787913380 | 25° C | 95% | 1018.5 hPa | 0 mm | - | 0 W/m² | - |
| 1787913075 | 25° C | 95% | 1018.4 hPa | 0 mm | - | 0 W/m² | - |
| 1787912773 | 25° C | 95% | 1018.4 hPa | 0 mm | - | 0 W/m² | - |
| 1787912469 | 25° C | 95% | 1018.5 hPa | 0 mm | - | 0 W/m² | - |
| 1787912167 | 25° C | 95% | 1018.5 hPa | 0 mm | - | 0 W/m² | - |
| 1787911863 | 25° C | 95% | 1018.3 hPa | 0 mm | - | 0 W/m² | - |
* Rain latest hour (hover to see other rain measurements)
** Current wind speed in m/s (hover to see current wind gust speed)